<?xml version="1.0" encoding="UTF-8" standalone="no" ?>
<gpx xmlns="http://www.topografix.com/GPX/1/1" xmlns:xsi="http://www.w3.org/2001/XMLSchema-instance" xsi:schemaLocation="http://www.topografix.com/GPX/1/1 http://www.topografix.com/GPX/1/1/gpx.xsd" version="1.1" creator="VisuGPX - https://www.visugpx.com">
  <metadata>
    <name>09: Ravin de Coulon - plateau de Tesserieyres</name>
    <desc><![CDATA[09: Ravin de Coulon - plateau de Tesserieyres]]></desc>
  </metadata>
  <wpt lat="43.83631" lon="3.12279">
    <ele>520</ele>
    <name><![CDATA[Accueil PdC Centre]]></name>
  </wpt>
  <wpt lat="43.83565" lon="3.12242">
    <ele>530.1</ele>
    <name><![CDATA[PCB]]></name>
  </wpt>
  <wpt lat="43.83443" lon="3.12248">
    <ele>580</ele>
    <name><![CDATA[MTM]]></name>
  </wpt>
  <wpt lat="43.83147" lon="3.12582">
    <ele>605</ele>
    <name><![CDATA[STA]]></name>
  </wpt>
  <wpt lat="43.8311" lon="3.12622">
    <ele>605</ele>
    <name><![CDATA[STB]]></name>
  </wpt>
  <wpt lat="43.83112" lon="3.1253">
    <ele>630</ele>
    <name><![CDATA[STC]]></name>
  </wpt>
  <wpt lat="43.83143" lon="3.1247">
    <ele>644.9</ele>
    <name><![CDATA[MTC]]></name>
  </wpt>
  <wpt lat="43.82395" lon="3.11845">
    <ele>592.1</ele>
    <name><![CDATA[RCO]]></name>
  </wpt>
  <wpt lat="43.82324" lon="3.11774">
    <ele>600</ele>
    <name><![CDATA[RCD]]></name>
  </wpt>
  <wpt lat="43.82217" lon="3.11579">
    <ele>635.1</ele>
    <name><![CDATA[RCE]]></name>
  </wpt>
  <wpt lat="43.82163" lon="3.11461">
    <ele>650</ele>
    <name><![CDATA[RCF]]></name>
  </wpt>
  <wpt lat="43.82132" lon="3.11361">
    <ele>669.9</ele>
    <name><![CDATA[RCG]]></name>
  </wpt>
  <wpt lat="43.82066" lon="3.11182">
    <ele>690.1</ele>
    <name><![CDATA[RCH]]></name>
  </wpt>
  <wpt lat="43.82011" lon="3.11074">
    <ele>694.9</ele>
    <name><![CDATA[RCI]]></name>
  </wpt>
  <wpt lat="43.81894" lon="3.11018">
    <ele>719.9</ele>
    <name><![CDATA[PTF]]></name>
  </wpt>
  <wpt lat="43.82091" lon="3.10845">
    <ele>719.9</ele>
    <name><![CDATA[PTE]]></name>
  </wpt>
  <wpt lat="43.82262" lon="3.11042">
    <ele>735.1</ele>
    <name><![CDATA[RMC]]></name>
  </wpt>
  <wpt lat="43.82347" lon="3.11236">
    <ele>730</ele>
    <name><![CDATA[MTE]]></name>
  </wpt>
  <wpt lat="43.82514" lon="3.11561">
    <ele>705</ele>
    <name><![CDATA[MTD]]></name>
  </wpt>
  <wpt lat="43.82916" lon="3.11905">
    <ele>669.9</ele>
    <name><![CDATA[MTA]]></name>
  </wpt>
  <wpt lat="43.8271" lon="3.1147">
    <ele>640.1</ele>
    <name><![CDATA[RMB]]></name>
  </wpt>
  <wpt lat="43.8336" lon="3.12054">
    <ele>555</ele>
    <name><![CDATA[RMA]]></name>
  </wpt>
  <trk>
    <name><![CDATA[RoTr 09 PdC]]></name>
    <trkseg>
      <trkpt lat="43.83564" lon="3.12242">
        <ele>531</ele>
        <time>2010-01-01T00:00:00Z</time>
      </trkpt>
      <trkpt lat="43.83551" lon="3.12223">
        <ele>535</ele>
        <time>2010-01-01T00:00:34Z</time>
      </trkpt>
      <trkpt lat="43.83535" lon="3.12201">
        <ele>539</ele>
        <time>2010-01-01T00:01:16Z</time>
      </trkpt>
      <trkpt lat="43.83516" lon="3.12172">
        <ele>541</ele>
        <time>2010-01-01T00:02:09Z</time>
      </trkpt>
      <trkpt lat="43.83501" lon="3.12144">
        <ele>541</ele>
        <time>2010-01-01T00:02:57Z</time>
      </trkpt>
      <trkpt lat="43.83477" lon="3.12116">
        <ele>546</ele>
        <time>2010-01-01T00:03:55Z</time>
      </trkpt>
      <trkpt lat="43.8345" lon="3.12096">
        <ele>548</ele>
        <time>2010-01-01T00:04:52Z</time>
      </trkpt>
      <trkpt lat="43.83416" lon="3.12078">
        <ele>551</ele>
        <time>2010-01-01T00:06:00Z</time>
      </trkpt>
      <trkpt lat="43.83388" lon="3.12066">
        <ele>557</ele>
        <time>2010-01-01T00:06:55Z</time>
      </trkpt>
      <trkpt lat="43.83362" lon="3.12051">
        <ele>561</ele>
        <time>2010-01-01T00:07:46Z</time>
      </trkpt>
      <trkpt lat="43.83363" lon="3.12051">
        <ele>561</ele>
        <time>2010-01-01T00:07:47Z</time>
      </trkpt>
      <trkpt lat="43.834" lon="3.12092">
        <ele>557</ele>
        <time>2010-01-01T00:09:15Z</time>
      </trkpt>
      <trkpt lat="43.83429" lon="3.12127">
        <ele>559</ele>
        <time>2010-01-01T00:10:27Z</time>
      </trkpt>
      <trkpt lat="43.83444" lon="3.12174">
        <ele>565</ele>
        <time>2010-01-01T00:11:35Z</time>
      </trkpt>
      <trkpt lat="43.8345" lon="3.12244">
        <ele>575</ele>
        <time>2010-01-01T00:13:10Z</time>
      </trkpt>
      <trkpt lat="43.83449" lon="3.12245">
        <ele>575</ele>
        <time>2010-01-01T00:13:13Z</time>
      </trkpt>
      <trkpt lat="43.83433" lon="3.12258">
        <ele>582</ele>
        <time>2010-01-01T00:13:46Z</time>
      </trkpt>
      <trkpt lat="43.83389" lon="3.12276">
        <ele>597</ele>
        <time>2010-01-01T00:15:13Z</time>
      </trkpt>
      <trkpt lat="43.83298" lon="3.12384">
        <ele>614</ele>
        <time>2010-01-01T00:18:55Z</time>
      </trkpt>
      <trkpt lat="43.83259" lon="3.12431">
        <ele>619</ele>
        <time>2010-01-01T00:20:32Z</time>
      </trkpt>
      <trkpt lat="43.83232" lon="3.12477">
        <ele>617</ele>
        <time>2010-01-01T00:21:51Z</time>
      </trkpt>
      <trkpt lat="43.83214" lon="3.12516">
        <ele>612</ele>
        <time>2010-01-01T00:22:54Z</time>
      </trkpt>
      <trkpt lat="43.83148" lon="3.12582">
        <ele>607</ele>
        <time>2010-01-01T00:25:25Z</time>
      </trkpt>
      <trkpt lat="43.83147" lon="3.12583">
        <ele>607</ele>
        <time>2010-01-01T00:25:27Z</time>
      </trkpt>
      <trkpt lat="43.83093" lon="3.12624">
        <ele>594</ele>
        <time>2010-01-01T00:27:22Z</time>
      </trkpt>
      <trkpt lat="43.83093" lon="3.12623">
        <ele>594</ele>
        <time>2010-01-01T00:27:23Z</time>
      </trkpt>
      <trkpt lat="43.83091" lon="3.12616">
        <ele>596</ele>
        <time>2010-01-01T00:27:34Z</time>
      </trkpt>
      <trkpt lat="43.83105" lon="3.12583">
        <ele>604</ele>
        <time>2010-01-01T00:28:25Z</time>
      </trkpt>
      <trkpt lat="43.83112" lon="3.1256">
        <ele>609</ele>
        <time>2010-01-01T00:28:58Z</time>
      </trkpt>
      <trkpt lat="43.83108" lon="3.12544">
        <ele>612</ele>
        <time>2010-01-01T00:29:20Z</time>
      </trkpt>
      <trkpt lat="43.8311" lon="3.12527">
        <ele>616</ele>
        <time>2010-01-01T00:29:44Z</time>
      </trkpt>
      <trkpt lat="43.8311" lon="3.12525">
        <ele>616</ele>
        <time>2010-01-01T00:29:47Z</time>
      </trkpt>
      <trkpt lat="43.83111" lon="3.12512">
        <ele>619</ele>
        <time>2010-01-01T00:30:05Z</time>
      </trkpt>
      <trkpt lat="43.83133" lon="3.12498">
        <ele>625</ele>
        <time>2010-01-01T00:30:49Z</time>
      </trkpt>
      <trkpt lat="43.83143" lon="3.1247">
        <ele>633</ele>
        <time>2010-01-01T00:31:32Z</time>
      </trkpt>
      <trkpt lat="43.83143" lon="3.1247">
        <ele>633</ele>
        <time>2010-01-01T00:31:34Z</time>
      </trkpt>
      <trkpt lat="43.83124" lon="3.12477">
        <ele>628</ele>
        <time>2010-01-01T00:32:09Z</time>
      </trkpt>
      <trkpt lat="43.83048" lon="3.12321">
        <ele>637</ele>
        <time>2010-01-01T00:36:22Z</time>
      </trkpt>
      <trkpt lat="43.82982" lon="3.12229">
        <ele>630</ele>
        <time>2010-01-01T00:39:16Z</time>
      </trkpt>
      <trkpt lat="43.82886" lon="3.12124">
        <ele>621</ele>
        <time>2010-01-01T00:43:03Z</time>
      </trkpt>
      <trkpt lat="43.82795" lon="3.12036">
        <ele>619</ele>
        <time>2010-01-01T00:46:30Z</time>
      </trkpt>
      <trkpt lat="43.82671" lon="3.11946">
        <ele>613</ele>
        <time>2010-01-01T00:50:51Z</time>
      </trkpt>
      <trkpt lat="43.82598" lon="3.11897">
        <ele>614</ele>
        <time>2010-01-01T00:53:22Z</time>
      </trkpt>
      <trkpt lat="43.82535" lon="3.11874">
        <ele>612</ele>
        <time>2010-01-01T00:55:23Z</time>
      </trkpt>
      <trkpt lat="43.82455" lon="3.11847">
        <ele>610</ele>
        <time>2010-01-01T00:57:57Z</time>
      </trkpt>
      <trkpt lat="43.82422" lon="3.11835">
        <ele>608</ele>
        <time>2010-01-01T00:59:01Z</time>
      </trkpt>
      <trkpt lat="43.82403" lon="3.11836">
        <ele>609</ele>
        <time>2010-01-01T00:59:35Z</time>
      </trkpt>
      <trkpt lat="43.82398" lon="3.11844">
        <ele>609</ele>
        <time>2010-01-01T00:59:48Z</time>
      </trkpt>
      <trkpt lat="43.82396" lon="3.11843">
        <ele>609</ele>
        <time>2010-01-01T00:59:52Z</time>
      </trkpt>
      <trkpt lat="43.8235" lon="3.11797">
        <ele>620</ele>
        <time>2010-01-01T01:01:38Z</time>
      </trkpt>
      <trkpt lat="43.82325" lon="3.11773">
        <ele>625</ele>
        <time>2010-01-01T01:02:35Z</time>
      </trkpt>
      <trkpt lat="43.82324" lon="3.11773">
        <ele>625</ele>
        <time>2010-01-01T01:02:36Z</time>
      </trkpt>
      <trkpt lat="43.82269" lon="3.11659">
        <ele>647</ele>
        <time>2010-01-01T01:05:40Z</time>
      </trkpt>
      <trkpt lat="43.82234" lon="3.11613">
        <ele>654</ele>
        <time>2010-01-01T01:07:11Z</time>
      </trkpt>
      <trkpt lat="43.82217" lon="3.11577">
        <ele>660</ele>
        <time>2010-01-01T01:08:08Z</time>
      </trkpt>
      <trkpt lat="43.82217" lon="3.11578">
        <ele>659</ele>
        <time>2010-01-01T01:08:10Z</time>
      </trkpt>
      <trkpt lat="43.82196" lon="3.1154">
        <ele>665</ele>
        <time>2010-01-01T01:09:14Z</time>
      </trkpt>
      <trkpt lat="43.8217" lon="3.11512">
        <ele>665</ele>
        <time>2010-01-01T01:10:16Z</time>
      </trkpt>
      <trkpt lat="43.8216" lon="3.11463">
        <ele>670</ele>
        <time>2010-01-01T01:11:23Z</time>
      </trkpt>
      <trkpt lat="43.8216" lon="3.11463">
        <ele>670</ele>
        <time>2010-01-01T01:11:25Z</time>
      </trkpt>
      <trkpt lat="43.82154" lon="3.11426">
        <ele>674</ele>
        <time>2010-01-01T01:12:15Z</time>
      </trkpt>
      <trkpt lat="43.82132" lon="3.11363">
        <ele>687</ele>
        <time>2010-01-01T01:13:49Z</time>
      </trkpt>
      <trkpt lat="43.82131" lon="3.11361">
        <ele>687</ele>
        <time>2010-01-01T01:13:52Z</time>
      </trkpt>
      <trkpt lat="43.82099" lon="3.11247">
        <ele>695</ele>
        <time>2010-01-01T01:16:37Z</time>
      </trkpt>
      <trkpt lat="43.82065" lon="3.11182">
        <ele>699</ele>
        <time>2010-01-01T01:18:24Z</time>
      </trkpt>
      <trkpt lat="43.82064" lon="3.11181">
        <ele>699</ele>
        <time>2010-01-01T01:18:27Z</time>
      </trkpt>
      <trkpt lat="43.82044" lon="3.11132">
        <ele>705</ele>
        <time>2010-01-01T01:19:43Z</time>
      </trkpt>
      <trkpt lat="43.82016" lon="3.11095">
        <ele>707</ele>
        <time>2010-01-01T01:20:55Z</time>
      </trkpt>
      <trkpt lat="43.82005" lon="3.11082">
        <ele>706</ele>
        <time>2010-01-01T01:21:22Z</time>
      </trkpt>
      <trkpt lat="43.82003" lon="3.1108">
        <ele>706</ele>
        <time>2010-01-01T01:21:26Z</time>
      </trkpt>
      <trkpt lat="43.81954" lon="3.11071">
        <ele>711</ele>
        <time>2010-01-01T01:22:58Z</time>
      </trkpt>
      <trkpt lat="43.81927" lon="3.11067">
        <ele>714</ele>
        <time>2010-01-01T01:23:50Z</time>
      </trkpt>
      <trkpt lat="43.81895" lon="3.11019">
        <ele>706</ele>
        <time>2010-01-01T01:25:17Z</time>
      </trkpt>
      <trkpt lat="43.81894" lon="3.11017">
        <ele>706</ele>
        <time>2010-01-01T01:25:21Z</time>
      </trkpt>
      <trkpt lat="43.81927" lon="3.10964">
        <ele>707</ele>
        <time>2010-01-01T01:26:56Z</time>
      </trkpt>
      <trkpt lat="43.82012" lon="3.10857">
        <ele>713</ele>
        <time>2010-01-01T01:30:30Z</time>
      </trkpt>
      <trkpt lat="43.82041" lon="3.10841">
        <ele>716</ele>
        <time>2010-01-01T01:31:28Z</time>
      </trkpt>
      <trkpt lat="43.82085" lon="3.10844">
        <ele>722</ele>
        <time>2010-01-01T01:32:49Z</time>
      </trkpt>
      <trkpt lat="43.82085" lon="3.10847">
        <ele>722</ele>
        <time>2010-01-01T01:32:53Z</time>
      </trkpt>
      <trkpt lat="43.82116" lon="3.10884">
        <ele>725</ele>
        <time>2010-01-01T01:34:09Z</time>
      </trkpt>
      <trkpt lat="43.82191" lon="3.10932">
        <ele>734</ele>
        <time>2010-01-01T01:36:42Z</time>
      </trkpt>
      <trkpt lat="43.82252" lon="3.1095">
        <ele>737</ele>
        <time>2010-01-01T01:38:38Z</time>
      </trkpt>
      <trkpt lat="43.82257" lon="3.1099">
        <ele>738</ele>
        <time>2010-01-01T01:39:33Z</time>
      </trkpt>
      <trkpt lat="43.82262" lon="3.11019">
        <ele>736</ele>
        <time>2010-01-01T01:40:13Z</time>
      </trkpt>
      <trkpt lat="43.82258" lon="3.11037">
        <ele>735</ele>
        <time>2010-01-01T01:40:38Z</time>
      </trkpt>
      <trkpt lat="43.82257" lon="3.11043">
        <ele>735</ele>
        <time>2010-01-01T01:40:47Z</time>
      </trkpt>
      <trkpt lat="43.8228" lon="3.11103">
        <ele>729</ele>
        <time>2010-01-01T01:42:17Z</time>
      </trkpt>
      <trkpt lat="43.82299" lon="3.11117">
        <ele>727</ele>
        <time>2010-01-01T01:42:58Z</time>
      </trkpt>
      <trkpt lat="43.82336" lon="3.11192">
        <ele>725</ele>
        <time>2010-01-01T01:45:00Z</time>
      </trkpt>
      <trkpt lat="43.8234" lon="3.11238">
        <ele>725</ele>
        <time>2010-01-01T01:46:02Z</time>
      </trkpt>
      <trkpt lat="43.8234" lon="3.11239">
        <ele>725</ele>
        <time>2010-01-01T01:46:05Z</time>
      </trkpt>
      <trkpt lat="43.82265" lon="3.11326">
        <ele>716</ele>
        <time>2010-01-01T01:49:07Z</time>
      </trkpt>
      <trkpt lat="43.82354" lon="3.11492">
        <ele>705</ele>
        <time>2010-01-01T01:53:45Z</time>
      </trkpt>
      <trkpt lat="43.82392" lon="3.11501">
        <ele>708</ele>
        <time>2010-01-01T01:54:57Z</time>
      </trkpt>
      <trkpt lat="43.82424" lon="3.11534">
        <ele>703</ele>
        <time>2010-01-01T01:56:10Z</time>
      </trkpt>
      <trkpt lat="43.82465" lon="3.11546">
        <ele>703</ele>
        <time>2010-01-01T01:57:29Z</time>
      </trkpt>
      <trkpt lat="43.82487" lon="3.11529">
        <ele>707</ele>
        <time>2010-01-01T01:58:16Z</time>
      </trkpt>
      <trkpt lat="43.82486" lon="3.11527">
        <ele>707</ele>
        <time>2010-01-01T01:58:18Z</time>
      </trkpt>
      <trkpt lat="43.82513" lon="3.11557">
        <ele>704</ele>
        <time>2010-01-01T01:59:23Z</time>
      </trkpt>
      <trkpt lat="43.82526" lon="3.11562">
        <ele>704</ele>
        <time>2010-01-01T01:59:48Z</time>
      </trkpt>
      <trkpt lat="43.82547" lon="3.11614">
        <ele>696</ele>
        <time>2010-01-01T02:01:07Z</time>
      </trkpt>
      <trkpt lat="43.82556" lon="3.11633">
        <ele>694</ele>
        <time>2010-01-01T02:01:38Z</time>
      </trkpt>
      <trkpt lat="43.82586" lon="3.11676">
        <ele>689</ele>
        <time>2010-01-01T02:02:58Z</time>
      </trkpt>
      <trkpt lat="43.82652" lon="3.11703">
        <ele>683</ele>
        <time>2010-01-01T02:05:05Z</time>
      </trkpt>
      <trkpt lat="43.82755" lon="3.11794">
        <ele>673</ele>
        <time>2010-01-01T02:08:53Z</time>
      </trkpt>
      <trkpt lat="43.82885" lon="3.11873">
        <ele>666</ele>
        <time>2010-01-01T02:13:18Z</time>
      </trkpt>
      <trkpt lat="43.82916" lon="3.11903">
        <ele>669</ele>
        <time>2010-01-01T02:14:28Z</time>
      </trkpt>
      <trkpt lat="43.82918" lon="3.119">
        <ele>669</ele>
        <time>2010-01-01T02:14:33Z</time>
      </trkpt>
      <trkpt lat="43.82905" lon="3.11856">
        <ele>662</ele>
        <time>2010-01-01T02:15:37Z</time>
      </trkpt>
      <trkpt lat="43.82888" lon="3.11829">
        <ele>660</ele>
        <time>2010-01-01T02:16:25Z</time>
      </trkpt>
      <trkpt lat="43.82816" lon="3.11755">
        <ele>658</ele>
        <time>2010-01-01T02:19:11Z</time>
      </trkpt>
      <trkpt lat="43.8277" lon="3.11682">
        <ele>655</ele>
        <time>2010-01-01T02:21:21Z</time>
      </trkpt>
      <trkpt lat="43.82709" lon="3.11494">
        <ele>659</ele>
        <time>2010-01-01T02:25:58Z</time>
      </trkpt>
      <trkpt lat="43.82712" lon="3.11465">
        <ele>661</ele>
        <time>2010-01-01T02:26:37Z</time>
      </trkpt>
      <trkpt lat="43.82714" lon="3.11465">
        <ele>661</ele>
        <time>2010-01-01T02:26:40Z</time>
      </trkpt>
      <trkpt lat="43.8272" lon="3.11462">
        <ele>661</ele>
        <time>2010-01-01T02:26:52Z</time>
      </trkpt>
      <trkpt lat="43.82743" lon="3.11482">
        <ele>653</ele>
        <time>2010-01-01T02:27:44Z</time>
      </trkpt>
      <trkpt lat="43.82742" lon="3.11492">
        <ele>651</ele>
        <time>2010-01-01T02:27:57Z</time>
      </trkpt>
      <trkpt lat="43.82808" lon="3.11571">
        <ele>637</ele>
        <time>2010-01-01T02:30:39Z</time>
      </trkpt>
      <trkpt lat="43.82865" lon="3.11622">
        <ele>624</ele>
        <time>2010-01-01T02:32:45Z</time>
      </trkpt>
      <trkpt lat="43.83006" lon="3.11677">
        <ele>595</ele>
        <time>2010-01-01T02:37:17Z</time>
      </trkpt>
      <trkpt lat="43.8304" lon="3.11723">
        <ele>595</ele>
        <time>2010-01-01T02:38:47Z</time>
      </trkpt>
      <trkpt lat="43.83076" lon="3.11798">
        <ele>591</ele>
        <time>2010-01-01T02:40:47Z</time>
      </trkpt>
      <trkpt lat="43.83115" lon="3.11861">
        <ele>592</ele>
        <time>2010-01-01T02:42:40Z</time>
      </trkpt>
      <trkpt lat="43.83192" lon="3.11939">
        <ele>581</ele>
        <time>2010-01-01T02:45:36Z</time>
      </trkpt>
      <trkpt lat="43.83292" lon="3.12018">
        <ele>570</ele>
        <time>2010-01-01T02:49:11Z</time>
      </trkpt>
      <trkpt lat="43.83356" lon="3.12053">
        <ele>563</ele>
        <time>2010-01-01T02:51:20Z</time>
      </trkpt>
      <trkpt lat="43.83362" lon="3.12051">
        <ele>561</ele>
        <time>2010-01-01T02:51:31Z</time>
      </trkpt>
      <trkpt lat="43.83388" lon="3.12066">
        <ele>557</ele>
        <time>2010-01-01T02:52:23Z</time>
      </trkpt>
      <trkpt lat="43.83415" lon="3.12077">
        <ele>551</ele>
        <time>2010-01-01T02:53:14Z</time>
      </trkpt>
      <trkpt lat="43.83451" lon="3.12097">
        <ele>548</ele>
        <time>2010-01-01T02:54:27Z</time>
      </trkpt>
      <trkpt lat="43.83477" lon="3.12116">
        <ele>546</ele>
        <time>2010-01-01T02:55:22Z</time>
      </trkpt>
      <trkpt lat="43.83501" lon="3.12144">
        <ele>541</ele>
        <time>2010-01-01T02:56:20Z</time>
      </trkpt>
      <trkpt lat="43.83517" lon="3.12172">
        <ele>541</ele>
        <time>2010-01-01T02:57:08Z</time>
      </trkpt>
      <trkpt lat="43.83534" lon="3.12201">
        <ele>539</ele>
        <time>2010-01-01T02:57:59Z</time>
      </trkpt>
      <trkpt lat="43.83564" lon="3.12241">
        <ele>531</ele>
        <time>2010-01-01T02:59:15Z</time>
      </trkpt>
    </trkseg>
  </trk>
</gpx>